Wetbulb
49.37 49.33 49.33 48.91 47.73 48.16 42.72 37.42 28.69 40.43 43.83 32.37 28.05 26.14 34.14 39.30 37.65 39.76 38.10 36.50 34.29 31.35 30.95 28.62 28.24 28.55 32.04 36.47 33.45 28.28 30.47 26.26 17.95 20.45 26.33 28.03 25.16 22.91 25.43 23.08 17.50 20.21 16.66 13.23
48.90 48.82 48.68 47.77 47.80 46.13 37.98 35.62 34.20 42.56 40.51 23.55 23.88 31.81 35.04 36.81 35.83 35.71 35.67 34.74 35.39 35.33 29.10 26.18 29.81 32.17 37.63 37.33 34.52 29.78 29.22 22.63 17.77 20.05 19.97 22.66 17.05 23.33 24.54 26.86 23.77 14.16 12.98 9.96
48.66 48.28 47.91 47.93 47.70 47.70 39.81 33.16 28.03 34.29 35.33 32.68 30.03 30.08 31.75 32.60 38.15 36.98 37.57 35.95 37.20 35.30 31.34 31.74 27.46 29.36 35.32 37.93 35.08 36.55 30.65 21.30 12.46 7.76 9.97 14.40 13.59 20.60 22.67 21.27 15.84 14.63 15.14 16.73
48.17 47.76 47.91 47.68 47.80 47.91 40.59 34.10 30.37 33.59 25.91 29.73 31.40 32.47 34.07 32.28 32.19 37.13 36.56 34.57 33.70 32.42 28.51 28.49 27.80 30.27 31.72 36.18 37.41 32.85 25.31 13.03 17.59 12.56 21.31 23.14 21.95 20.15 21.07 19.32 19.76 14.16 16.39 17.85
47.49 47.53 47.85 47.61 47.80 47.98 40.87 33.25 32.83 33.59 31.48 34.54 32.48 32.02 30.01 32.08 33.82 33.86 31.55 30.80 34.60 33.06 27.72 28.71 25.65 29.32 28.11 26.45 34.81 30.43 29.08 17.70 18.00 17.01 24.24 23.55 20.35 22.05 22.48 22.04 20.43 19.62 20.03 18.78
47.83 47.34 46.89 47.45 48.32 46.34 37.57 38.13 39.11 35.43 31.40 30.04 29.16 28.63 32.22 34.04 35.23 35.97 36.55 34.63 31.92 31.50 32.60 35.04 34.44 34.32 32.95 31.05 29.29 31.77 26.65 21.28 19.77 15.76 23.78 24.04 16.56 18.06 21.66 21.29 22.58 13.73 14.49 17.12
48.53 48.22 48.34 48.60 49.16 45.65 41.96 41.47 37.44 31.65 26.71 29.65 30.40 35.02 35.33 34.75 34.72 31.89 35.78 35.72 31.65 35.64 39.08 38.73 37.63 37.48 36.11 32.61 31.19 32.74 26.25 23.94 27.71 17.70 21.79 4.92 16.25 22.89 24.37 22.90 21.33 20.92 21.88 22.02
48.25 48.22 48.58 48.70 49.36 49.46 44.21 43.24 37.93 32.70 26.36 31.92 34.72 35.54 34.10 34.91 35.16 33.34 34.02 36.47 37.58 38.67 35.26 31.09 31.91 28.91 31.51 28.71 30.36 28.57 30.06 25.58 15.47 12.45 15.36 15.44 22.08 21.31 21.15 23.05 17.96 21.64 20.57 23.26
48.05 48.08 48.55 48.64 49.39 50.16 43.60 41.55 42.20 36.13 28.56 28.66 36.40 33.97 34.11 29.81 28.48 30.93 34.11 38.31 39.03 37.50 32.74 28.95 20.22 14.47 24.65 20.86 25.00 29.51 29.46 25.86 16.75 11.60 8.28 0.54 14.13 22.38 31.31 27.96 17.73 28.25 24.12 23.35
47.82 48.14 48.32 48.42 49.15 49.58 44.18 42.30 40.74 36.41 28.49 33.07 34.00 31.09 30.79 34.78 31.95 28.20 30.88 33.45 34.75 36.48 27.28 20.93 19.54 18.38 26.03 14.81 10.13 12.14 21.53 18.96 10.97 12.26 12.18 16.15 19.45 26.28 32.11 16.59 16.53 27.05 28.27 26.08
47.67 47.92 48.29 48.48 48.74 48.40 43.57 40.34 40.50 37.23 30.88 32.78 37.20 38.02 32.35 34.10 32.35 27.61 31.12 31.71 31.90 29.29 25.38 22.47 19.84 19.87 20.07 17.66 15.10 9.12 11.92 11.77 9.65 15.48 9.38 5.82 27.40 29.83 18.99 23.69 29.56 31.14 31.02 30.46
47.36 47.74 47.81 48.66 49.19 48.72 45.26 38.64 42.87 41.28 34.07 34.06 38.40 38.35 38.99 38.72 38.63 33.14 32.40 30.64 30.87 29.48 24.79 24.84 23.87 22.56 20.55 22.19 11.45 25.49 13.13 14.67 13.36 12.41 10.58 19.28 25.97 23.19 30.23 32.35 31.82 32.04 30.68 31.15
46.63 46.73 47.06 47.80 48.61 49.10 46.63 41.39 41.61 38.44 32.60 32.25 32.77 33.51 39.41 43.51 41.55 40.64 32.32 32.95 35.92 33.25 33.56 27.15 25.66 24.17 23.91 16.99 16.69 23.25 25.92 28.97 19.89 20.48 22.18 25.63 30.67 32.79 33.69 34.80 34.13 33.66 33.33 32.20
45.82 46.45 46.90 47.33 48.19 48.66 46.07 40.82 41.56 39.58 34.46 25.58 29.93 39.88 36.89 40.87 41.71 40.46 39.20 37.66 36.76 35.30 33.38 28.02 23.37 23.38 27.38 21.21 23.85 22.40 25.43 28.33 25.18 24.14 28.13 31.33 32.11 32.10 33.31 34.24 34.91 33.97 33.44 32.80
45.42 45.91 46.70 47.09 47.91 48.27 43.87 40.44 39.75 41.84 35.14 26.82 28.32 35.73 39.19 40.26 39.54 38.85 38.04 37.43 33.67 30.76 27.22 24.47 24.75 26.63 26.22 25.51 25.08 20.69 27.37 26.08 20.79 17.97 28.20 28.15 28.76 32.79 34.66 33.30 32.88 33.88 33.04 31.70
45.08 45.89 46.43 46.95 47.05 43.93 36.92 32.77 39.59 40.27 41.22 31.32 25.07 34.23 35.82 38.04 38.11 36.59 35.54 36.10 33.91 31.50 27.77 25.00 27.24 32.10 28.59 22.67 21.09 27.39 30.84 32.37 31.32 29.02 33.27 31.93 32.91 34.82 35.30 33.67 34.43 35.06 34.02 33.32
44.45 44.69 45.40 46.13 46.27 39.11 35.65 31.83 37.99 41.83 41.85 32.42 26.10 26.89 34.45 38.31 37.68 35.57 35.04 34.98 32.16 30.69 27.22 25.49 25.71 27.64 28.94 23.47 21.18 29.11 32.19 33.90 34.01 34.40 34.10 31.10 33.27 31.70 35.06 35.40 36.48 37.77 35.46 34.84
43.62 43.80 44.05 44.01 45.00 43.47 37.84 37.56 40.49 41.96 36.87 36.95 27.18 27.92 28.39 35.40 32.01 29.43 33.09 32.17 32.25 30.93 28.76 27.59 27.15 28.02 27.70 22.14 29.40 31.45 33.07 34.10 34.14 34.77 35.01 33.59 34.05 34.16 34.57 35.27 35.56 34.46 33.79 34.17
43.57 44.60 43.40 37.89 36.79 32.97 37.88 44.25 42.72 39.04 36.51 27.67 30.11 25.43 21.68 35.07 33.01 32.32 32.17 31.95 26.59 31.42 26.92 28.60 27.75 24.41 23.89 28.94 29.98 31.91 32.44 32.31 33.02 34.87 34.72 34.11 33.53 33.66 34.33 34.54 34.13 32.93 33.33 33.98
43.91 36.86 27.70 22.30 35.11 43.91 42.36 33.08 25.07 23.68 24.83 33.21 29.14 31.26 27.66 31.20 29.73 27.84 29.73 29.57 25.69 23.56 28.84 29.94 23.66 24.46 31.95 32.92 34.35 34.36 34.35 34.73 34.86 31.67 31.27 32.11 32.16 33.09 33.42 34.11 34.78 34.57 34.64 34.71
30.02 21.73 24.80 37.35 42.32 37.71 30.40 23.72 21.12 22.27 22.86 27.15 30.44 31.48 27.16 32.82 27.32 27.91 28.92 25.99 27.58 23.70 26.64 25.60 23.11 25.74 30.26 34.20 34.37 35.21 35.64 35.48 35.35 35.35 35.54 35.16 34.94 34.07 33.70 33.97 35.40 35.44 35.17 34.18
32.56 36.87 40.22 37.45 32.68 27.95 24.98 20.34 25.22 25.97 23.97 27.90 28.26 30.58 31.27 32.09 33.51 29.18 27.84 26.19 27.57 23.72 29.52 23.73 22.14 26.87 34.08 34.19 34.79 34.93 35.52 34.98 35.38 35.75 35.87 36.05 36.50 36.01 35.22 35.02 34.77 34.62 35.76 35.62
39.34 35.16 33.20 29.14 23.78 18.01 21.20 14.94 23.56 22.33 26.75 29.56 30.14 28.66 30.68 30.34 31.60 28.14 26.72 25.78 24.58 28.50 20.40 23.36 25.06 30.53 34.74 34.36 35.59 35.22 36.21 35.37 35.11 35.76 36.52 36.53 36.22 36.83 35.74 35.07 35.53 35.07 35.23 36.00
30.67 28.46 18.38 25.79 20.97 24.02 25.30 23.96 25.42 28.81 29.82 30.32 30.88 28.57 28.18 27.39 27.85 26.83 25.52 27.06 26.04 21.42 18.34 22.62 25.83 31.74 34.28 33.89 35.69 35.61 34.69 35.63 35.26 35.50 35.78 35.77 35.53 35.68 36.20 36.12 36.59 33.34 34.40 35.99
31.08 29.28 19.18 23.81 27.69 29.52 29.73 30.32 30.97 31.82 33.78 33.21 30.44 29.88 28.88 26.58 26.68 26.50 26.09 22.94 20.81 22.86 22.65 25.04 30.39 34.19 34.08 33.62 34.76 35.09 35.00 34.81 34.87 35.40 35.62 36.04 35.80 35.05 34.77 35.96 36.39 35.75 35.70 36.00
33.31 31.89 27.58 29.03 26.48 26.90 27.19 29.38 29.53 33.86 32.70 32.63 31.38 27.64 25.62 26.19 26.36 24.87 22.89 22.59 22.09 23.96 25.12 28.70 33.27 34.71 34.30 34.63 35.65 35.63 36.17 35.92 35.63 35.53 35.94 36.45 36.38 36.14 36.40 36.88 37.53 34.92 34.34 31.76
30.98 26.92 30.01 28.72 30.51 31.00 29.30 31.84 32.88 36.14 35.48 27.70 28.12 25.01 25.46 27.21 24.64 24.05 25.68 24.27 25.74 27.64 29.41 33.21 34.85 35.08 34.36 34.40 35.33 35.57 35.86 35.89 35.67 36.06 36.09 36.41 37.09 37.38 36.69 35.86 36.93 37.14 36.85 33.82
MSLP
1021.91 1021.84 1021.70 1021.53 1021.32 1021.04 1021.17 1022.11 1022.40 1020.95 1020.68 1022.33 1023.74 1024.50 1023.94 1023.53 1023.22 1022.83 1023.04 1023.66 1024.43 1025.24 1025.74 1026.46 1026.56 1026.86 1026.89 1026.77 1026.94 1027.37 1027.80 1028.92 1030.44 1031.53 1031.22 1030.86 1030.66 1029.56 1028.21 1027.25 1028.31 1028.45 1029.19 1030.91
1021.93 1021.82 1021.70 1021.62 1021.42 1021.28 1021.97 1023.03 1022.76 1021.38 1021.17 1023.90 1024.99 1024.55 1024.30 1023.99 1023.65 1023.53 1023.66 1024.28 1024.96 1025.70 1026.44 1027.12 1027.23 1027.15 1026.96 1026.95 1027.21 1027.60 1028.33 1029.74 1031.34 1032.02 1032.13 1031.93 1031.28 1030.40 1029.18 1028.47 1028.86 1030.17 1030.44 1031.33
1021.88 1021.74 1021.76 1021.72 1021.63 1021.55 1021.92 1023.27 1023.84 1023.54 1023.58 1024.38 1024.92 1024.97 1024.72 1024.33 1023.86 1023.97 1024.08 1024.71 1025.44 1026.38 1027.03 1027.17 1027.73 1027.46 1027.29 1027.36 1027.62 1028.01 1028.70 1030.87 1031.74 1033.59 1034.53 1034.19 1033.35 1031.75 1030.80 1030.00 1030.62 1031.37 1032.06 1031.73
1021.88 1021.80 1021.84 1021.76 1021.65 1021.54 1022.02 1023.66 1024.67 1024.43 1025.75 1025.39 1024.90 1024.74 1024.79 1024.65 1024.38 1024.41 1024.66 1025.23 1025.76 1026.55 1027.45 1027.74 1027.95 1027.81 1027.87 1027.92 1028.24 1028.88 1030.61 1033.16 1033.60 1034.39 1034.25 1033.83 1033.48 1033.11 1032.64 1032.25 1032.66 1032.86 1032.84 1032.46
1021.93 1021.90 1021.82 1021.68 1021.45 1021.26 1021.95 1023.47 1024.02 1024.69 1025.20 1025.03 1025.22 1025.43 1025.34 1025.06 1024.91 1024.99 1025.37 1025.78 1026.19 1026.49 1027.11 1027.52 1028.14 1028.09 1028.24 1028.55 1029.14 1029.88 1031.08 1033.54 1034.40 1034.64 1033.86 1033.08 1033.24 1033.51 1033.49 1033.33 1033.66 1033.89 1033.57 1032.81
1022.16 1022.03 1021.89 1021.67 1021.39 1021.31 1022.13 1022.79 1023.09 1023.86 1025.69 1025.75 1025.82 1025.80 1025.44 1025.40 1025.26 1025.69 1025.59 1025.86 1026.38 1026.72 1027.10 1027.30 1027.63 1028.00 1028.32 1028.58 1029.20 1030.11 1031.25 1032.81 1034.01 1034.08 1033.68 1033.13 1033.52 1034.05 1034.11 1034.01 1034.13 1034.43 1034.01 1033.73
1022.46 1022.27 1022.05 1021.76 1021.42 1021.30 1022.18 1022.77 1023.61 1025.02 1026.52 1026.05 1025.95 1025.79 1025.64 1025.71 1025.71 1025.89 1026.04 1026.04 1026.29 1026.67 1026.81 1027.62 1027.93 1028.22 1028.71 1028.98 1029.36 1029.87 1031.11 1032.34 1032.98 1033.62 1033.78 1034.22 1034.09 1033.73 1034.06 1034.31 1034.30 1034.02 1033.86 1033.34
1022.78 1022.54 1022.29 1021.92 1021.55 1021.49 1021.92 1022.54 1023.45 1025.22 1027.08 1026.65 1026.33 1026.05 1026.07 1026.18 1026.27 1026.31 1026.31 1026.26 1026.37 1026.58 1027.21 1028.43 1029.13 1029.68 1029.95 1029.70 1029.82 1030.25 1030.77 1031.90 1033.26 1034.12 1034.72 1034.86 1034.09 1033.62 1033.77 1033.99 1034.17 1033.78 1033.86 1033.11
1023.07 1022.77 1022.49 1022.14 1021.79 1021.54 1022.14 1022.88 1023.20 1024.83 1026.77 1027.31 1026.87 1026.39 1026.33 1026.76 1027.03 1026.87 1026.64 1026.38 1026.42 1026.88 1028.04 1029.22 1030.06 1030.83 1030.82 1031.16 1030.85 1030.73 1031.09 1031.85 1033.28 1034.74 1035.50 1035.45 1034.39 1033.27 1032.87 1033.12 1033.36 1032.96 1032.99 1032.66
1023.49 1023.20 1022.89 1022.51 1022.20 1021.97 1022.23 1023.20 1023.36 1024.74 1027.31 1027.30 1026.61 1026.49 1026.66 1026.57 1027.09 1027.50 1027.22 1027.02 1027.10 1027.50 1028.95 1030.37 1031.31 1031.87 1031.81 1032.48 1033.06 1033.17 1033.11 1033.77 1034.77 1035.24 1035.42 1034.86 1033.69 1032.77 1032.21 1032.79 1033.44 1032.35 1032.16 1031.92
1024.04 1023.75 1023.36 1023.01 1022.72 1022.44 1022.65 1024.15 1023.73 1024.44 1027.12 1027.38 1026.52 1026.20 1026.22 1026.36 1026.93 1027.64 1027.70 1027.97 1028.16 1028.81 1029.75 1030.92 1031.82 1032.21 1032.86 1033.29 1033.58 1034.25 1034.52 1034.82 1035.23 1035.32 1035.48 1034.60 1033.03 1032.32 1032.28 1032.43 1031.80 1031.62 1031.32 1031.18
1024.73 1024.34 1024.00 1023.70 1023.45 1023.29 1023.30 1024.41 1024.43 1024.70 1026.32 1027.35 1026.65 1026.09 1025.59 1025.62 1026.02 1026.99 1027.71 1028.05 1028.32 1028.84 1029.82 1030.73 1031.53 1032.50 1032.98 1033.31 1033.65 1033.52 1034.10 1034.19 1034.46 1035.14 1034.65 1033.61 1032.65 1032.18 1031.61 1031.41 1031.29 1030.86 1030.62 1030.48
1025.42 1025.04 1024.65 1024.39 1024.20 1024.03 1024.18 1024.89 1025.24 1025.76 1027.34 1027.94 1027.22 1026.42 1025.68 1025.29 1025.53 1025.74 1027.16 1027.58 1027.54 1028.16 1028.41 1029.76 1031.14 1031.98 1032.25 1033.04 1032.98 1032.96 1032.94 1032.92 1033.42 1033.93 1033.34 1032.57 1031.72 1031.22 1030.90 1030.47 1030.48 1030.17 1029.94 1030.05
1026.02 1025.55 1025.18 1025.00 1024.85 1024.73 1024.68 1025.70 1025.98 1026.20 1027.50 1028.62 1028.09 1026.45 1025.92 1025.39 1025.39 1025.62 1026.01 1026.62 1027.06 1027.64 1028.39 1029.83 1030.98 1031.37 1031.26 1032.04 1031.99 1032.22 1031.91 1032.05 1032.47 1032.68 1032.12 1031.63 1030.97 1030.40 1029.82 1029.78 1029.61 1029.60 1029.73 1029.82
1026.63 1026.24 1025.90 1025.63 1025.42 1025.36 1025.64 1026.17 1026.46 1026.20 1026.99 1028.62 1028.43 1027.41 1026.22 1025.76 1025.77 1025.90 1026.16 1026.65 1027.44 1028.35 1029.27 1030.14 1030.81 1030.67 1030.78 1031.29 1031.51 1031.34 1030.81 1030.99 1031.28 1031.17 1030.84 1030.68 1030.21 1029.57 1029.17 1029.24 1029.20 1029.40 1029.62 1029.81
1027.07 1026.81 1026.50 1026.15 1025.87 1025.88 1026.38 1026.90 1026.66 1026.54 1026.54 1027.57 1028.71 1027.92 1026.85 1026.26 1026.16 1026.19 1026.55 1026.98 1027.72 1028.61 1029.59 1030.25 1029.96 1029.52 1030.25 1031.11 1030.91 1029.87 1029.43 1029.28 1029.45 1029.68 1029.47 1029.33 1029.05 1029.04 1028.84 1028.85 1028.92 1029.15 1029.45 1029.58
1027.42 1027.24 1027.00 1026.61 1026.20 1026.52 1027.14 1027.21 1026.93 1026.63 1026.69 1027.66 1028.92 1028.44 1027.19 1026.50 1026.70 1026.88 1027.07 1027.29 1027.96 1028.60 1029.49 1029.99 1029.74 1029.54 1029.50 1030.05 1029.74 1028.61 1028.50 1028.38 1028.48 1028.39 1028.65 1028.75 1028.63 1028.70 1028.67 1028.70 1028.81 1029.12 1029.35 1029.59
1027.65 1027.45 1027.22 1027.11 1026.92 1026.98 1027.08 1027.08 1026.64 1026.44 1027.23 1027.91 1028.96 1028.80 1027.89 1026.82 1027.38 1027.84 1027.60 1028.14 1028.45 1028.72 1029.10 1029.49 1029.45 1029.22 1029.23 1028.85 1027.47 1027.36 1027.55 1027.71 1027.89 1027.89 1027.81 1027.88 1028.01 1028.37 1028.59 1028.63 1028.79 1029.13 1029.41 1029.54
1027.87 1027.58 1027.24 1027.31 1027.47 1027.44 1027.23 1026.85 1026.71 1026.93 1027.76 1028.43 1028.72 1028.76 1027.94 1027.12 1027.49 1027.83 1028.12 1028.29 1029.15 1028.90 1028.98 1028.99 1028.97 1028.70 1027.84 1025.87 1025.91 1026.15 1026.38 1026.75 1027.03 1027.25 1027.44 1027.82 1028.14 1028.42 1028.62 1028.70 1028.87 1029.19 1029.48 1029.48
1028.14 1028.21 1028.20 1028.08 1027.66 1027.27 1027.07 1027.07 1027.48 1028.14 1028.06 1028.17 1028.24 1027.79 1027.61 1027.37 1027.81 1028.35 1028.81 1028.81 1029.31 1029.04 1028.46 1028.29 1028.27 1026.92 1024.79 1024.23 1024.19 1024.58 1025.07 1025.59 1026.09 1026.72 1027.11 1027.49 1027.86 1028.10 1028.40 1028.52 1028.63 1028.87 1029.10 1029.25
1028.80 1029.13 1029.00 1027.89 1027.33 1027.52 1028.24 1028.68 1028.95 1028.94 1028.73 1027.80 1027.29 1027.04 1027.11 1027.05 1027.63 1028.26 1028.42 1028.66 1028.83 1028.83 1028.19 1028.18 1027.72 1025.96 1023.40 1022.85 1023.32 1023.61 1024.05 1024.63 1025.19 1025.56 1026.07 1026.49 1026.89 1027.50 1027.98 1028.19 1028.28 1028.48 1028.67 1028.83
1029.05 1028.95 1028.06 1027.95 1028.27 1028.69 1029.25 1028.91 1028.66 1028.38 1027.43 1026.78 1026.50 1026.40 1026.37 1026.74 1026.75 1027.78 1028.36 1028.16 1028.37 1028.15 1027.72 1028.02 1026.77 1023.45 1022.06 1022.01 1022.39 1022.91 1023.36 1023.93 1024.57 1024.97 1025.48 1025.95 1026.34 1026.80 1027.30 1027.61 1027.90 1028.09 1028.10 1028.43
1028.52 1028.74 1028.77 1028.84 1029.11 1029.31 1028.82 1027.82 1027.29 1026.79 1025.55 1025.27 1025.54 1025.97 1026.13 1026.65 1026.97 1027.70 1028.07 1028.19 1028.07 1027.42 1027.53 1026.71 1024.14 1022.28 1021.55 1021.47 1021.89 1022.54 1022.95 1023.51 1024.06 1024.63 1025.10 1025.50 1025.91 1026.27 1026.74 1027.08 1027.32 1027.61 1027.86 1027.95
1029.20 1028.99 1029.02 1028.43 1027.78 1026.88 1025.25 1024.63 1024.13 1023.56 1023.53 1023.96 1024.64 1025.94 1026.14 1026.65 1027.25 1027.53 1027.86 1027.54 1027.42 1027.46 1027.18 1024.98 1022.60 1021.27 1020.94 1021.02 1021.32 1022.04 1022.61 1023.05 1023.57 1024.16 1024.68 1025.09 1025.55 1025.99 1026.17 1026.36 1026.67 1027.17 1027.54 1027.47
1029.07 1028.48 1027.38 1025.75 1024.22 1023.89 1023.57 1023.16 1023.14 1022.81 1022.74 1023.38 1024.53 1025.58 1026.12 1026.71 1027.22 1027.22 1027.29 1027.23 1026.76 1026.02 1024.43 1022.79 1020.84 1020.13 1020.19 1020.61 1020.97 1021.48 1022.15 1022.76 1023.24 1023.62 1024.12 1024.57 1025.04 1025.42 1025.74 1025.86 1026.08 1026.38 1026.58 1026.85
1028.05 1026.38 1025.01 1023.90 1023.86 1023.08 1023.08 1022.68 1022.47 1022.31 1022.57 1023.19 1024.06 1025.26 1026.23 1026.19 1026.16 1026.58 1026.24 1025.97 1024.58 1023.02 1022.13 1020.61 1019.91 1019.56 1019.60 1019.93 1020.25 1020.67 1021.20 1021.88 1022.50 1023.09 1023.57 1023.99 1024.37 1024.66 1024.85 1025.05 1025.36 1025.58 1025.85 1026.17
1026.13 1023.67 1022.87 1022.84 1022.50 1022.22 1021.56 1021.60 1021.43 1021.37 1021.98 1022.90 1023.44 1024.38 1024.31 1024.73 1024.93 1024.82 1024.03 1023.09 1021.65 1020.80 1020.23 1019.63 1019.31 1019.06 1019.23 1019.56 1019.89 1020.34 1020.82 1021.38 1021.89 1022.34 1022.74 1023.03 1023.25 1023.64 1024.23 1024.57 1024.60 1024.79 1024.95 1025.10
Wind_Speed
4 4 4 5 7 8 6 3 5 5 3 7 2 3 3 4 4 5 3 5 6 4 5 6 4 2 5 3 3 2 2 4 2 4 12 7 12 10 5 2 3 3 3 3
4 4 5 6 8 9 3 3 1 3 6 5 3 3 3 4 5 5 4 3 5 6 3 4 4 3 1 6 4 3 4 3 3 3 7 7 7 16 11 5 3 10 3 3
5 6 7 6 5 5 5 5 4 6 6 2 7 3 1 3 2 4 4 4 6 6 7 6 2 4 4 3 4 14 6 5 6 7 7 3 6 18 19 10 5 3 7 12
5 6 6 4 4 5 4 4 3 5 1 4 6 6 3 3 3 3 7 6 4 6 3 2 3 3 6 6 8 5 7 4 6 2 7 10 10 13 15 16 10 5 8 10
6 6 6 6 8 5 5 5 5 4 2 3 7 5 2 4 2 3 2 4 4 5 4 5 2 2 1 2 4 3 3 6 2 2 9 13 12 13 9 8 9 4 7 6
8 7 6 7 8 5 3 2 2 7 5 3 6 1 2 3 6 5 4 4 5 7 2 7 7 3 1 3 5 3 4 7 5 5 10 3 6 5 5 3 2 5 4 6
9 8 8 8 9 4 4 1 5 7 2 4 4 4 4 5 3 4 2 5 5 2 7 5 5 5 3 5 4 4 5 6 4 2 1 3 7 3 4 3 4 4 3 7
10 10 8 8 8 5 4 1 5 5 3 1 7 5 5 5 4 4 3 1 3 2 4 3 1 2 4 5 3 8 3 5 3 4 2 3 2 5 2 3 5 4 4 7
11 10 11 12 10 7 5 2 3 6 7 5 4 2 2 3 2 2 0 2 1 4 3 3 2 1 2 4 7 4 6 5 6 3 4 3 7 6 4 5 2 3 3 5
12 11 11 11 10 10 5 3 4 7 6 4 2 3 2 2 3 3 2 1 2 4 2 3 2 1 1 0 1 4 4 4 4 2 2 4 7 7 2 2 6 6 2 4
11 13 13 13 12 13 6 2 2 7 5 5 3 2 2 3 3 4 4 5 5 3 4 4 3 3 2 3 4 5 4 3 1 2 4 4 1 3 6 7 5 4 5 3
13 13 14 14 13 12 7 5 4 3 7 6 2 2 1 3 6 6 2 5 4 5 4 1 3 3 2 3 2 2 4 7 5 6 7 7 5 5 5 3 5 5 5 4
11 11 13 14 14 12 7 3 2 5 6 5 6 3 5 2 0 5 5 3 4 1 5 4 3 3 4 2 3 1 2 3 3 4 5 3 6 4 5 5 7 6 3 3
12 11 13 13 12 12 8 4 3 5 4 6 6 3 4 3 5 3 5 4 4 4 3 3 3 3 2 4 4 4 6 4 4 1 4 2 5 6 4 5 7 3 3 3
11 12 11 11 10 10 6 3 3 2 7 5 3 5 4 4 4 5 4 4 3 3 4 4 1 2 4 1 3 2 4 6 4 6 7 6 6 5 3 3 3 6 5 3
10 10 10 9 9 7 5 6 3 4 2 6 1 4 3 3 3 2 3 1 3 3 4 2 2 2 4 3 3 5 4 5 7 5 6 7 6 7 4 2 3 6 6 5
8 9 11 12 6 4 4 7 4 4 1 5 3 2 5 3 1 3 2 3 1 4 2 1 3 2 4 3 4 7 8 7 7 5 4 3 6 6 6 4 4 6 5 4
7 8 9 8 7 5 3 3 4 3 5 3 4 3 3 1 1 1 1 1 3 3 2 1 3 1 2 4 6 9 9 8 7 7 7 6 5 6 6 4 4 4 4 2
8 11 7 4 5 3 3 6 5 2 5 3 2 6 6 1 1 2 3 3 1 2 1 3 4 2 6 8 11 15 10 10 9 8 7 5 7 7 7 5 4 4 3 2
8 6 6 5 3 5 5 9 6 6 4 2 4 2 4 5 1 1 2 1 2 0 5 2 2 6 7 7 16 15 14 13 11 8 6 7 6 8 7 7 5 6 6 4
5 3 2 4 3 4 4 2 3 2 2 3 4 5 5 2 4 4 3 3 1 1 5 4 3 6 6 11 16 14 14 12 13 9 8 9 10 8 7 6 7 6 7 6
5 3 3 3 4 4 2 3 3 4 6 3 5 5 5 2 4 4 2 3 2 5 2 3 5 7 5 11 16 14 14 12 14 9 10 10 9 9 8 7 7 7 6 6
3 3 2 4 3 1 7 8 5 4 5 5 4 3 4 3 4 3 3 2 5 1 2 6 8 4 3 10 13 13 13 11 9 9 10 10 9 9 8 7 6 7 6 7
2 4 5 7 5 8 8 7 5 6 4 6 5 3 4 2 3 3 4 5 2 1 4 9 5 7 7 9 11 13 14 14 13 12 10 9 9 9 9 8 7 8 7 7
4 4 8 9 6 4 5 5 2 2 6 7 5 4 4 1 3 3 2 2 5 7 7 5 5 6 8 10 11 13 13 11 10 8 9 9 9 8 8 8 8 8 7 7
5 8 4 4 2 4 3 3 4 3 5 4 4 4 4 5 5 5 9 6 9 6 6 6 3 5 8 10 12 13 12 12 10 8 8 8 9 9 9 8 8 9 9 8
8 6 5 4 2 5 5 5 5 5 10 5 4 8 10 3 4 6 7 8 6 6 5 4 5 7 8 7 8 10 10 11 10 9 9 10 9 8 6 8 8 9 10 9
Wind_Direction
31 22 30 35 15 345 72 82 56 295 68 53 35 53 30 70 16 360 88 72 62 59 9 25 45 88 6 15 335 355 282 103 86 152 73 10 24 356 311 291 13 351 117 113
27 30 60 67 36 38 106 86 241 315 80 97 10 50 70 72 26 30 37 88 79 39 54 93 31 19 116 41 22 19 328 48 153 187 358 350 359 14 15 99 134 11 34 292
29 59 75 73 51 36 87 80 43 337 44 105 123 118 105 103 322 42 42 109 82 68 16 41 31 345 31 56 51 54 78 22 120 139 193 249 25 28 25 37 45 77 14 336
44 67 67 52 17 341 99 48 246 187 324 346 79 83 82 83 40 64 32 41 107 135 139 80 9 356 358 38 21 53 90 63 95 148 154 96 65 41 39 41 31 58 324 7
56 58 42 8 351 11 79 121 122 19 91 34 63 20 52 106 33 78 32 76 117 95 122 163 171 326 78 234 6 65 51 152 150 242 139 82 53 31 24 40 37 29 358 344
55 50 23 351 346 48 97 305 57 99 309 62 78 296 106 27 125 30 78 118 100 86 86 145 168 177 332 297 149 116 120 144 180 214 226 293 26 326 337 328 338 170 20 261
42 36 16 351 341 114 126 198 99 83 320 99 147 117 96 88 60 124 44 84 98 195 96 71 31 8 28 63 42 133 136 146 210 138 134 40 242 242 214 259 270 311 301 295
31 22 8 352 27 148 86 135 98 100 63 261 38 90 124 96 69 87 100 60 177 121 111 94 181 5 356 318 38 29 165 175 54 104 46 241 266 299 137 189 271 221 246 293
25 17 17 19 15 42 86 49 102 94 111 322 274 98 106 142 145 359 139 282 205 86 85 90 110 192 191 332 335 24 38 67 107 60 108 182 239 280 295 125 311 315 186 276
23 26 26 26 34 32 92 29 76 86 100 289 62 102 180 118 104 143 336 26 30 70 82 71 102 301 67 175 46 317 344 5 93 98 105 286 247 271 275 74 251 297 269 273
30 32 31 32 35 34 76 264 2 115 112 301 41 72 71 31 82 134 257 44 338 39 59 108 235 107 244 72 211 175 153 110 281 54 66 299 325 349 105 222 286 266 280 308
28 31 33 41 38 50 59 62 352 73 99 196 282 335 319 174 185 139 37 172 189 195 85 65 110 74 48 155 275 75 347 171 177 146 208 236 250 202 253 229 253 283 312 0
27 30 38 36 37 42 77 77 20 52 67 3 37 358 318 6 283 161 113 303 213 168 173 160 159 85 122 135 266 110 319 151 95 67 290 253 276 260 231 250 245 270 57 62
22 24 31 29 32 37 63 77 315 86 109 103 287 312 339 310 30 79 147 160 49 87 73 90 115 133 152 203 181 143 201 118 162 250 288 291 280 229 257 183 225 102 108 101
15 18 18 14 27 57 61 60 10 84 125 161 240 314 299 331 27 44 59 81 82 54 41 56 193 193 95 11 74 302 190 172 150 213 218 177 229 225 173 189 267 152 147 88
10 7 6 2 25 60 52 18 336 6 101 92 100 275 276 265 316 328 50 113 89 88 129 204 265 233 100 120 201 236 204 168 159 190 189 204 210 207 175 176 50 156 140 131
11 16 14 7 19 77 121 185 236 333 83 81 37 329 282 200 147 330 342 18 78 116 146 185 168 256 104 133 198 204 186 170 192 200 186 244 156 196 171 140 76 140 137 134
344 350 352 345 359 69 17 299 335 357 82 76 115 253 10 144 226 289 194 67 20 337 195 47 181 355 109 242 218 173 178 174 183 188 194 192 171 148 170 154 129 120 139 153
339 326 0 41 33 40 257 322 7 34 126 162 145 157 224 102 196 213 12 83 33 297 198 248 109 231 228 212 171 173 176 174 187 206 211 178 164 167 160 154 148 144 171 174
347 29 46 337 249 282 14 8 17 9 326 76 196 150 201 118 113 262 94 33 214 165 247 91 136 252 238 195 179 177 177 181 178 181 188 164 161 166 172 181 184 186 185 190
37 41 220 242 323 54 29 308 111 284 291 204 223 172 144 256 123 191 183 191 195 175 262 140 263 265 231 175 181 182 180 181 181 178 182 179 169 176 173 190 191 177 185 201
202 245 286 26 35 35 86 243 291 196 227 202 157 192 164 185 113 102 251 172 107 243 160 90 259 251 236 168 180 182 181 175 180 178 176 178 174 171 178 187 190 194 181 188
20 43 310 80 283 35 193 207 231 221 200 189 161 115 130 46 58 83 105 191 230 70 56 233 230 241 209 174 173 177 180 173 173 176 180 179 182 171 175 190 197 193 193 196
164 161 267 191 215 239 200 193 191 221 156 137 123 106 127 142 95 151 150 228 84 274 237 237 247 227 202 174 173 167 184 184 182 185 184 183 181 187 194 192 179 184 205 218
232 172 229 216 226 244 234 203 275 247 139 130 89 57 96 127 141 192 149 175 242 220 231 230 238 226 173 171 173 177 181 185 187 182 183 187 189 190 204 205 197 201 211 216
244 233 251 248 150 255 231 215 213 187 128 82 73 134 128 212 171 159 209 180 219 240 218 231 257 193 181 179 180 183 182 183 185 185 187 188 189 196 208 211 206 208 207 216
244 241 205 190 242 225 220 171 202 165 148 173 145 167 203 130 188 214 188 209 218 217 246 228 216 187 189 183 179 179 180 184 187 189 192 200 202 201 201 217 224 218 222 213